Palm Springs, CA

12:09 AM PDT on August 25, 2019 (GMT -0700)
Palm Springs International

Weather History for KPSP - July, 2019

Change the Weather History Date:

Wednesday, July 17, 2019

  Actual Average Record
Temperature  
Mean Temperature 93 °F 93 °F  
Max Temperature 109 °F 108 °F 120 °F (2005)
Min Temperature 76 °F 78 °F 56 °F (1940)
Degree Days  
Heating Degree Days 0 0  
Month to date heating degree days 0 0  
Since 1 June heating degree days 0 0  
Since 1 July heating degree days 0 0  
Cooling Degree Days 28 28  
Month to date cooling degree days 476 456  
Year to date cooling degree days 1922 1862  
Since 1 June cooling degree days 1191 1103  
Growing Degree Days 44 (Base 50)    
Moisture  
Dew Point 45 °F    
Average Humidity 22    
Maximum Humidity 32    
Minimum Humidity 12    
Precipitation  
Precipitation 0.00 in 0.01 in 0.08 in (1969)
Month to date precipitation 0.00 0.04  
Year to date precipitation 6.35 2.98  
Sea Level Pressure  
Sea Level Pressure 29.79 in    
Wind  
Wind Speed 7 mph (North)    
Max Wind Speed 24 mph    
Max Gust Speed 32 mph    
Visibility 10 miles    
Events      
T = Trace of Precipitation, MM = Missing Value Source: NWS Daily Summary

Daily Weather History Graph

Daily Weather History Graph

Search for Another Location

Airport or City:

Astronomy

Jul. 17, 2019 Rise Set
Actual Time 5:47 AM PDT 7:56 PM PDT
Civil Twilight 5:19 AM PDT 8:24 PM PDT
Nautical Twilight 4:44 AM PDT 8:59 PM PDT
Astronomical Twilight 4:07 AM PDT 9:36 PM PDT
Moon 8:49 PM PDT (7/17) 6:24 AM PDT (7/17)
Length of Visible Light 15h 05m
Length of Day
14h 09m
Full, 99% of the Moon is Illuminated
Jul 17
Full
Jul 24
Last Quarter
Jul 31
New
Aug 7
First Quarter
Aug 15
Full

Hourly Weather History & Observations

Time (PDT) Temp. Dew Point Humidity Pressure Visibility Wind Dir Wind Speed Gust Speed Precip Events Conditions
12:53 AM 88.0 °F 45.0 °F 22% 29.72 in 10.0 mi Calm Calm - N/A   Clear
1:53 AM 84.0 °F 46.0 °F 26% 29.72 in 10.0 mi Calm Calm - N/A   Clear
2:53 AM 84.0 °F 46.9 °F 27% 29.72 in 10.0 mi Calm Calm - N/A   Clear
3:53 AM 82.0 °F 46.9 °F 29% 29.71 in 10.0 mi Calm Calm - N/A   Clear
4:53 AM 82.0 °F 46.0 °F 28% 29.73 in 10.0 mi NW 3.5 mph - N/A   Clear
5:53 AM 79.0 °F 46.0 °F 31% 29.77 in 10.0 mi Calm Calm - N/A   Clear
6:53 AM 82.9 °F 45.0 °F 26% 29.79 in 10.0 mi Variable 4.6 mph - N/A   Clear
7:53 AM 87.1 °F 48.0 °F 26% 29.82 in 10.0 mi SSE 5.8 mph - N/A   Clear
8:33 AM 91.0 °F 43.0 °F 19% 29.86 in 10.0 mi SE 9.2 mph - N/A   Clear
8:53 AM 91.0 °F 43.0 °F 19% 29.85 in 10.0 mi ESE 8.1 mph - N/A   Clear
9:53 AM 95.0 °F 46.9 °F 19% 29.87 in 10.0 mi SSE 10.4 mph - N/A   Clear
10:53 AM 96.1 °F 42.1 °F 15% 29.88 in 10.0 mi ESE 8.1 mph - N/A   Clear
11:53 AM 98.1 °F 51.1 °F 20% 29.88 in 10.0 mi SE 8.1 mph - N/A   Clear
12:53 PM 99.0 °F 51.1 °F 20% 29.85 in 10.0 mi North - - N/A   Clear
1:53 PM 100.9 °F 46.9 °F 16% 29.83 in 10.0 mi Calm Calm - N/A   Clear
2:53 PM 104.0 °F 46.0 °F 14% 29.81 in 10.0 mi Variable 5.8 mph - N/A   Clear
3:39 PM 108.0 °F 45.0 °F 12% 29.79 in 10.0 mi Variable 6.9 mph - N/A   Clear
3:53 PM 108.0 °F 44.1 °F 12% 29.78 in 10.0 mi NNW 12.7 mph 21.9 mph N/A   Clear
4:53 PM 107.1 °F 44.1 °F 12% 29.76 in 10.0 mi NNW 17.3 mph 23.0 mph N/A   Clear
5:53 PM 105.1 °F 42.1 °F 12% 29.75 in 10.0 mi NW 15.0 mph - N/A   Clear
6:53 PM 102.9 °F 39.0 °F 11% 29.75 in 10.0 mi NNW 21.9 mph 26.5 mph N/A   Clear
7:53 PM 98.1 °F 39.9 °F 13% 29.76 in 10.0 mi NNW 20.7 mph 25.3 mph N/A   Clear
8:53 PM 93.9 °F 44.1 °F 18% 29.78 in 10.0 mi NW 19.6 mph 24.2 mph N/A   Clear
9:53 PM 91.9 °F 46.0 °F 21% 29.81 in 10.0 mi Calm Calm - N/A   Clear
10:53 PM 89.1 °F 48.9 °F 25% 29.82 in 10.0 mi WNW 8.1 mph - N/A   Clear
11:53 PM 87.1 °F 48.9 °F 27% 29.82 in 10.0 mi Calm Calm - N/A   Clear